TimeCDT,TemperatureF,Dew PointF,Humidity,Sea Level PressureIn,VisibilityMPH,Wind Direction,Wind SpeedMPH,Gust SpeedMPH,PrecipitationIn,Events,Conditions,WindDirDegrees,DateUTC
12:53 AM,17.1,3.9,56,29.98,10.0,West,11.5,-,N/A,,Clear,260,2013-03-20 05:53:00
1:53 AM,15.1,3.0,59,29.98,10.0,West,11.5,-,N/A,,Clear,270,2013-03-20 06:53:00
2:53 AM,12.9,1.9,62,29.99,10.0,West,10.4,-,N/A,,Clear,260,2013-03-20 07:53:00
3:53 AM,12.9,1.0,59,29.99,10.0,West,13.8,-,N/A,,Clear,270,2013-03-20 08:53:00
4:53 AM,12.0,-0.0,59,29.99,10.0,West,15.0,-,N/A,,Clear,280,2013-03-20 09:53:00
5:53 AM,10.9,-0.9,59,30.00,10.0,West,13.8,-,N/A,,Clear,280,2013-03-20 10:53:00
6:53 AM,9.0,-2.0,61,30.01,10.0,West,11.5,-,N/A,,Clear,270,2013-03-20 11:53:00
7:53 AM,10.0,-2.0,58,30.02,10.0,West,17.3,-,N/A,,Clear,280,2013-03-20 12:53:00
8:53 AM,10.9,-0.9,59,30.01,10.0,West,16.1,-,N/A,,Clear,280,2013-03-20 13:53:00
9:53 AM,12.0,-0.0,59,30.01,10.0,WNW,16.1,25.3,N/A,,Clear,290,2013-03-20 14:53:00
10:53 AM,14.0,1.0,56,30.01,10.0,WNW,18.4,-,N/A,,Clear,290,2013-03-20 15:53:00
11:53 AM,16.0,1.9,54,30.01,10.0,West,17.3,26.5,N/A,,Clear,270,2013-03-20 16:53:00
12:53 PM,18.0,3.9,54,30.01,10.0,West,16.1,-,N/A,,Clear,280,2013-03-20 17:53:00
1:53 PM,19.0,3.9,52,29.99,10.0,West,16.1,-,N/A,,Clear,270,2013-03-20 18:53:00
2:53 PM,19.9,5.0,52,29.99,10.0,West,17.3,24.2,N/A,,Mostly Cloudy,280,2013-03-20 19:53:00
3:53 PM,19.9,7.0,57,29.99,10.0,West,16.1,-,N/A,,Overcast,270,2013-03-20 20:53:00
4:53 PM,21.0,9.0,60,29.99,10.0,West,17.3,-,N/A,,Overcast,280,2013-03-20 21:53:00
5:53 PM,19.9,8.1,60,30.00,10.0,West,17.3,-,N/A,,Overcast,280,2013-03-20 22:53:00
6:53 PM,19.0,7.0,59,30.01,10.0,West,12.7,-,N/A,,Partly Cloudy,270,2013-03-20 23:53:00
7:53 PM,18.0,7.0,62,30.02,10.0,West,9.2,-,N/A,,Overcast,270,2013-03-21 00:53:00
8:53 PM,19.0,6.1,57,30.04,10.0,WNW,12.7,-,N/A,,Overcast,300,2013-03-21 01:53:00
9:53 PM,17.1,3.9,56,30.04,10.0,WNW,11.5,-,N/A,,Partly Cloudy,300,2013-03-21 02:53:00
10:53 PM,17.1,5.0,59,30.04,10.0,NW,12.7,-,N/A,,Overcast,310,2013-03-21 03:53:00
11:53 PM,18.0,6.1,60,30.04,10.0,WNW,10.4,-,N/A,,Overcast,290,2013-03-21 04:53:00